This demonstration page uses our WeatherBlox Daily Observations layout. Learn more.

Hourly Observations for March 11, 2015

Temp ( °F °C ) Dew Point ( °F °C ) Humidity (%) Winds ( mph kmh ) Pressure ( in mb ) Visibility ( mi km ) Precip ( " mm )
12:15 am 00:15 Clear 36 2.1 17 -8.2 47 47 W 3 6 30.21 1023 10 16.0934 0 0
12:35 am 00:35 Clear 37 2.7 17 -8.4 44 44 N 7 11 30.21 1023 10 16.0934 0 0
12:55 am 00:55 Clear 37 3 17 -8.4 43 43 N 3 6 30.21 1023 10 16.0934 0 0
1:15 am 01:15 Clear 38 3.5 17 -8.1 43 43 N 5 7 30.18 1022 10 16.0934 0 0
1:35 am 01:35 Clear 36 2.4 17 -8.5 45 45 Calm 30.21 1023 10 16.0934 0 0
1:55 am 01:55 Clear 37 2.8 17 -8.4 44 44 Calm 30.21 1023 10 16.0934 0 0
2:15 am 02:15 Clear 35 1.8 17 -8.2 48 48 NNW 3 6 30.21 1023 10 16.0934 0 0
2:35 am 02:35 Clear 33 0.7 17 -8.4 51 51 NNW 6 9 30.21 1023 10 16.0934 0 0
2:55 am 02:55 Clear 32 0 17 -8.4 54 54 NNW 5 7 30.24 1024 10 16.0934 0 0
3:15 am 03:15 Clear 32 0 17 -8.4 54 54 N 3 6 30.27 1025 10 16.0934 0 0
3:35 am 03:35 Clear 32 0.2 18 -8 54 54 Calm 30.27 1025 10 16.0934 0 0
3:55 am 03:55 Clear 32 -0.2 17 -8.1 56 56 Calm 30.24 1024 10 16.0934 0 0
4:15 am 04:15 Clear 31 -0.3 17 -8.1 56 56 Calm 30.24 1024 10 16.0934 0 0
4:35 am 04:35 Clear 31 -0.5 18 -8 57 57 Calm 30.24 1024 10 16.0934 0 0
4:55 am 04:55 Clear 30 -1.2 17 -8.2 59 59 Calm 30.27 1025 10 16.0934 0 0
5:15 am 05:15 Clear 27 -2.6 16 -9 62 62 Calm 30.3 1026 10 16.0934 0 0
5:35 am 05:35 Clear 28 -2.3 17 -8.3 64 64 Calm 30.27 1025 10 16.0934 0 0
5:55 am 05:55 Clear 29 -1.7 18 -7.8 63 63 Calm 30.27 1025 10 16.0934 0 0
6:15 am 06:15 Clear 28 -2.1 16 -8.7 61 61 ESE 5 7 30.27 1025 10 16.0934 0 0
6:35 am 06:35 Clear 31 -0.8 17 -8.1 58 58 NNW 10 17 30.3 1026 10 16.0934 0 0
6:55 am 06:55 Clear 31 -0.5 20 -6.9 62 62 N 5 7 30.3 1026 10 16.0934 0 0
7:15 am 07:15 Clear 31 -0.7 20 -6.4 66 66 N 3 6 30.33 1027 10 16.0934 0 0
7:35 am 07:35 Clear 28 -2.2 19 -7 70 70 N 3 6 30.36 1028 10 16.0934 0 0
7:55 am 07:55 Clear 29 -1.7 20 -6.4 71 71 N 3 6 30.36 1028 10 16.0934 0 0
8:15 am 08:15 Sunny 29 -1.7 21 -6.2 72 72 N 5 7 30.36 1028 10 16.0934 0 0
8:35 am 08:35 Sunny 27 -2.8 20 -6.9 74 74 Calm 30.36 1028 10 16.0934 0 0
8:55 am 08:55 Sunny 31 -0.8 23 -5 74 74 Calm 30.33 1027 10 16.0934 0 0
9:15 am 09:15 Sunny 35 1.7 26 -3.5 69 69 Calm 30.3 1026 10 16.0934 0 0
9:35 am 09:35 Sunny 40 4.6 29 -1.8 64 64 Calm 30.27 1025 10 16.0934 0 0
9:55 am 09:55 Sunny 43 6.2 28 -2 56 56 Calm 30.3 1026 10 16.0934 0 0
10:15 am 10:15 Sunny 48 8.9 29 -1.8 47 47 SE 5 7 30.27 1025 10 16.0934 0 0
10:35 am 10:35 Sunny 52 10.9 28 -2.1 41 41 SSE 6 9 30.27 1025 10 16.0934 0 0
10:55 am 10:55 Sunny 56 13.4 27 -2.6 33 33 S 7 11 30.24 1024 10 16.0934 0 0
11:15 am 11:15 Sunny 59 15.2 26 -3.2 28 28 S 9 15 30.21 1023 10 16.0934 0 0
11:35 am 11:35 Sunny 63 17.1 25 -3.9 24 24 S 13 20 30.18 1022 10 16.0934 0 0
11:55 am 11:55 Sunny 64 17.8 25 -3.9 23 23 S 10 17 30.18 1022 10 16.0934 0 0
12:15 pm 12:15 Sunny 65 18.5 25 -4 21 21 S 16 26 30.15 1021 10 16.0934 0 0
12:35 pm 12:35 Sunny 67 19.2 25 -4 21 21 S 15 24 30.15 1021 10 16.0934 0 0
12:55 pm 12:55 Sunny 67 19.6 24 -4.4 19 19 S 16 26 30.15 1021 10 16.0934 0 0
1:15 pm 13:15 Sunny 68 20.1 24 -4.6 19 19 S 13 20 30.15 1021 10 16.0934 0 0
1:35 pm 13:35 Sunny 69 20.5 22 -5.4 17 17 S 14 22 30.15 1021 10 16.0934 0 0
1:55 pm 13:55 Sunny 70 21 21 -6.2 16 16 SSW 15 24 30.15 1021 10 16.0934 0 0
2:15 pm 14:15 Sunny 70 21.2 21 -6 16 16 S 14 22 30.12 1020 10 16.0934 0 0
2:35 pm 14:35 Sunny 71 21.5 21 -6.1 15 15 S 8 13 30.09 1019 10 16.0934 0 0
2:55 pm 14:55 Sunny 72 22 21 -6.3 14 14 SSW 14 22 30.09 1019 10 16.0934 0 0
3:15 pm 15:15 Sunny 71 21.8 20 -6.6 14 14 S 12 19 30.06 1018 10 16.0934 0 0
3:35 pm 15:35 Sunny 72 22 20 -6.9 14 14 SSW 13 20 30.06 1018 10 16.0934 0 0
3:55 pm 15:55 Sunny 72 22 20 -6.9 14 14 S 16 26 30.06 1018 10 16.0934 0 0
4:15 pm 16:15 Sunny 72 22.2 19 -7.4 13 13 SSW 10 17 30.06 1018 10 16.0934 0 0
4:35 pm 16:35 Sunny 72 22.3 19 -7 13 13 SW 9 15 30.06 1018 10 16.0934 0 0
4:55 pm 16:55 Sunny 71 21.9 19 -7.1 14 14 S 16 26 30.06 1018 10 16.0934 0 0
5:15 pm 17:15 Sunny 71 21.9 19 -7.2 14 14 S 8 13 30.06 1018 10 16.0934 0 0
5:35 pm 17:35 Sunny 71 21.7 18 -7.7 13 13 S 8 13 30.06 1018 10 16.0934 0 0
5:55 pm 17:55 Sunny 71 21.7 19 -7.4 14 14 S 12 19 30.03 1017 10 16.0934 0 0
6:15 pm 18:15 Sunny 71 21.5 19 -7 14 14 S 12 19 30.03 1017 10 16.0934 0 0
6:35 pm 18:35 Sunny 70 21.2 20 -6.9 15 15 S 8 13 30.03 1017 10 16.0934 0 0
6:55 pm 18:55 Sunny 68 20.2 19 -7 15 15 SSE 9 15 30.06 1018 10 16.0934 0 0
7:15 pm 19:15 Sunny 64 18 20 -6.7 18 18 SSE 8 13 30.06 1018 10 16.0934 0 0
7:35 pm 19:35 Sunny 59 14.8 20 -6.5 23 23 SSE 8 13 30.09 1019 10 16.0934 0 0
7:55 pm 19:55 Clear 54 12 20 -6.8 26 26 SSE 9 15 30.12 1020 10 16.0934 0 0
8:15 pm 20:15 Clear 51 10.5 19 -7 29 29 SE 9 15 30.12 1020 10 16.0934 0 0
8:35 pm 20:35 Clear 51 10.6 20 -6.7 29 29 SE 12 19 30.12 1020 10 16.0934 0 0
8:55 pm 20:55 Clear 52 11.1 21 -6.1 30 30 SE 12 19 30.12 1020 10 16.0934 0 0
9:15 pm 21:15 Clear 53 11.7 22 -5.6 30 30 SE 12 19 30.15 1021 10 16.0934 0 0
9:35 pm 21:35 Clear 53 11.4 22 -5.5 30 30 SE 10 17 30.15 1021 10 16.0934 0 0
9:55 pm 21:55 Clear 51 10.7 23 -5 33 33 SE 10 17 30.15 1021 10 16.0934 0 0
10:15 pm 22:15 Clear 51 10.5 24 -4.7 34 34 SE 10 17 30.15 1021 10 16.0934 0 0
10:35 pm 22:35 Clear 48 8.9 24 -4.5 39 39 SE 9 15 30.21 1023 10 16.0934 0 0
10:55 pm 22:55 Clear 47 8.6 25 -4 41 41 SE 9 15 30.21 1023 10 16.0934 0 0
11:15 pm 23:15 Clear 45 7.3 25 -4 45 45 SE 8 13 30.24 1024 10 16.0934 0 0
11:35 pm 23:35 Clear 46 7.6 26 -3.5 46 46 SE 10 17 30.21 1023 10 16.0934 0 0
11:55 pm 23:55 Clear 46 7.8 26 -3.5 45 45 SE 12 19 30.21 1023 10 16.0934 0 0

Powered by AerisWeather